Weather History for Lancaster, OH

Change the Weather History Date:

Friday, May 23, 2014

  Actual Average Record
Temperature  
Mean Temperature 60 °F -  
Max Temperature 71 °F 75 °F 91 °F (1964)
Min Temperature 48 °F 49 °F 32 °F (1963)
Degree Days  
Heating Degree Days 6    
Growing Degree Days 10 (Base 50)    
Moisture  
Dew Point 47 °F    
Average Humidity 61    
Maximum Humidity 89    
Minimum Humidity 41    
Precipitation  
Precipitation 0.00 in - - ()
Sea Level Pressure  
Sea Level Pressure 30.09 in    
Wind  
Wind Speed 7 mph (NW)    
Max Wind Speed 16 mph    
Max Gust Speed 22 mph    
Visibility 10 miles    
Events      
Averages and records for this station are not official NWS values.
T = Trace of Precipitation, MM = Missing Value Source: NWS Daily Summary

Daily Weather History Graph

Daily Weather History Graph

Search for Another Location

Airport:

Trip Planner

Search our weather history database for the weather conditions in past years. The results will help you decide how hot, cold, wet, or windy it might be!

Date:

Astronomy

May. 23, 2014 Rise Set
Actual Time 6:09 AM EDT 8:45 PM EDT
Civil Twilight 5:38 AM EDT 9:16 PM EDT
Nautical Twilight 4:59 AM EDT 9:56 PM EDT
Astronomical Twilight 4:15 AM EDT 10:39 PM EDT
Moon 3:02 AM EDT (5/23) 3:37 PM EDT (5/23)
Length of Visible Light 15h 38m
Length of Day
14h 36m
Waning Crescent, 27% of the Moon is Illuminated
May 23
Waning Crescent
May 28
New
Jun 5
First Quarter
Jun 13
Full
Jun 19
Last Quarter

Hourly Weather History & Observations

Time (EDT) Temp. Dew Point Humidity Pressure Visibility Wind Dir Wind Speed Gust Speed Precip Events Conditions
12:53 AM 62.1 °F 48.9 °F 62% 30.04 in 10.0 mi NNW 8.1 mph - N/A   Clear
1:53 AM 57.9 °F 48.9 °F 72% 30.04 in 10.0 mi NW 4.6 mph - N/A   Clear
2:53 AM 57.0 °F 46.9 °F 69% 30.03 in 10.0 mi WNW 3.5 mph - N/A   Clear
3:53 AM 53.1 °F 46.9 °F 80% 30.02 in 10.0 mi Calm Calm - N/A   Clear
4:53 AM 48.9 °F 45.0 °F 86% 30.04 in 10.0 mi Calm Calm - N/A   Clear
6:53 AM 54.0 °F 46.9 °F 77% 30.07 in 10.0 mi NW 5.8 mph - N/A   Clear
7:53 AM 57.0 °F 48.9 °F 74% 30.08 in 10.0 mi NW 6.9 mph - N/A   Scattered Clouds
8:53 AM 59.0 °F 48.0 °F 67% 30.08 in 10.0 mi NNW 5.8 mph - N/A   Partly Cloudy
9:53 AM 63.0 °F 48.0 °F 58% 30.11 in 10.0 mi NW 8.1 mph - N/A   Clear
10:53 AM 66.0 °F 46.9 °F 50% 30.11 in 10.0 mi NNW 9.2 mph - N/A   Clear
11:53 AM 68.0 °F 46.0 °F 45% 30.11 in 10.0 mi NW 15.0 mph 21.9 mph N/A   Partly Cloudy
12:53 PM 66.9 °F 46.0 °F 47% 30.11 in 10.0 mi NW 13.8 mph - N/A   Mostly Cloudy
1:53 PM 69.1 °F 46.0 °F 44% 30.12 in 10.0 mi NW 13.8 mph 20.7 mph N/A   Partly Cloudy
2:53 PM 70.0 °F 46.0 °F 42% 30.11 in 10.0 mi North 12.7 mph - N/A   Scattered Clouds
3:53 PM 69.1 °F 46.0 °F 44% 30.11 in 10.0 mi NW 16.1 mph 20.7 mph N/A   Mostly Cloudy
4:53 PM 71.1 °F 46.0 °F 41% 30.11 in 10.0 mi NW 16.1 mph - N/A   Mostly Cloudy
5:53 PM 69.1 °F 45.0 °F 42% 30.12 in 10.0 mi NW 10.4 mph - N/A   Clear
6:53 PM 66.9 °F 44.1 °F 44% 30.12 in 10.0 mi NW 10.4 mph - N/A   Clear
7:53 PM 68.0 °F 45.0 °F 43% 30.11 in 10.0 mi NNW 6.9 mph - N/A   Partly Cloudy
8:53 PM 62.1 °F 48.0 °F 60% 30.12 in 10.0 mi North 3.5 mph - N/A   Clear
9:53 PM 54.0 °F 48.0 °F 80% 30.13 in 10.0 mi Calm Calm - N/A   Clear
10:53 PM 53.1 °F 48.9 °F 86% 30.14 in 10.0 mi Calm Calm - N/A   Clear
11:53 PM 51.1 °F 48.0 °F 89% 30.14 in 10.0 mi Calm Calm - N/A   Clear